Location: Unspecified
(0.0000°N, 0.0000°E)
Time: 11:48:06
(UTC+02:00)

Ariane H10+ - Visible Passes

Search period start: 19 September 2014 00:00
Search period end: 29 September 2014 00:00
Orbit: 305 x 31851 km, 7.0° (Epoch: 18 September)

Date Brightness Start Highest point End Pass type
(mag) Time Alt. Az. Time Alt. Az. Time Alt. Az.
20 Sep 7.7 02:32:00 20° ENE 02:32:00 20° ENE 02:42:37 10° E visible
20 Sep 11.3 06:47:45 10° E 08:58:24 19° E 10:10:34 10° E visible
20 Sep 4.6 20:18:29 10° W 20:40:05 61° S 20:43:15 17° ESE visible
21 Sep 7.1 06:26:33 25° WNW 12:44:14 86° SSE 15:02:41 10° E visible
23 Sep 6.5 04:57:20 65° NW 05:00:52 73° N 13:23:38 10° E visible
25 Sep 7.1 03:27:54 46° ENE 03:27:54 46° ENE 11:36:36 10° E visible
25 Sep 3.5 21:31:17 10° W 21:38:36 57° SW 21:38:36 57° SW visible
26 Sep 7.7 07:23:00 10° W 10:40:45 90° NNW 16:02:29 10° E visible
27 Sep 8.1 01:58:16 13° ENE 01:58:16 13° ENE 02:00:45 10° E visible
27 Sep 11.9 07:10:53 10° E 08:22:54 13° E 09:13:02 10° E visible
28 Sep 6.9 05:52:24 38° WNW 12:25:13 81° ESE 14:25:30 10° E visible
